Livingston, MT

6:44 AM MST on January 16, 2018 (GMT -0700)
Mission

Weather History for KLVM - September, 2014

Change the Weather History Date:

Friday, September 5, 2014

  Actual Average Record
Temperature  
Mean Temperature 53 °F 60 °F  
Max Temperature 72 °F 77 °F 95 °F (1998)
Min Temperature 33 °F 42 °F 31 °F (1994)
Degree Days  
Heating Degree Days 12 6  
Month to date heating degree days 39 28  
Since 1 July heating degree days 108 146  
Cooling Degree Days 0 1  
Month to date cooling degree days 0 5  
Year to date cooling degree days 303 220  
Growing Degree Days 2 (Base 50)    
Moisture  
Dew Point 33 °F    
Average Humidity 58    
Maximum Humidity 92    
Minimum Humidity 24    
Precipitation  
Precipitation 0.00 in 0.04 in 0.95 in (1949)
Month to date precipitation 0.03 0.18  
Year to date precipitation 11.97 11.41  
Sea Level Pressure  
Sea Level Pressure 30.23 in    
Wind  
Wind Speed 4 mph (West)    
Max Wind Speed 9 mph    
Max Gust Speed 12 mph    
Visibility 10 miles    
Events      
T = Trace of Precipitation, MM = Missing Value Source: NWS Daily Summary

Daily Weather History Graph

Daily Weather History Graph

Search for Another Location

Airport or City:

Trip Planner

Search our weather history database for the weather conditions in past years. The results will help you decide how hot, cold, wet, or windy it might be!

Date:

Astronomy

Sep. 05, 2014 Rise Set
Actual Time 6:47 AM MDT 7:52 PM MDT
Civil Twilight 6:17 AM MDT 8:22 PM MDT
Nautical Twilight 5:40 AM MDT 8:58 PM MDT
Astronomical Twilight 5:02 AM MDT 9:37 PM MDT
Moon 5:31 PM MDT (9/5) 2:37 AM MDT (9/5)
Length of Visible Light 14h 04m
Length of Day
13h 04m
Waxing Gibbous, 84% of the Moon is Illuminated
Sep 5
Waxing Gibbous
Sep 8
Full
Sep 15
Last Quarter
Sep 24
New
Oct 1
First Quarter

Hourly Weather History & Observations

Time (MDT) Temp. Windchill Dew Point Humidity Pressure Visibility Wind Dir Wind Speed Gust Speed Precip Events Conditions
12:53 AM 39.9 °F 36.7 °F 33.1 °F 77% 30.19 in 10.0 mi South 4.6 mph - N/A   Clear
1:53 AM 39.0 °F 36.8 °F 33.1 °F 79% 30.21 in 10.0 mi NW 3.5 mph - N/A   Clear
2:53 AM 34.0 °F 31.0 °F 30.9 °F 89% 30.22 in 10.0 mi SW 3.5 mph - N/A   Clear
3:53 AM 36.0 °F 33.3 °F 32.0 °F 86% 30.23 in 10.0 mi WNW 3.5 mph - N/A   Clear
4:53 AM 34.0 °F 31.0 °F 30.9 °F 89% 30.24 in 10.0 mi WSW 3.5 mph - N/A   Clear
5:53 AM 34.0 °F 28.0 °F 30.0 °F 85% 30.25 in 10.0 mi NW 6.9 mph - N/A   Clear
6:53 AM 33.1 °F 28.7 °F 30.0 °F 89% 30.27 in 10.0 mi West 4.6 mph - N/A   Clear
7:53 AM 37.9 °F - 35.1 °F 89% 30.30 in 10.0 mi Calm Calm - N/A   Clear
8:53 AM 43.0 °F - 36.0 °F 76% 30.30 in 10.0 mi Calm Calm - N/A   Clear
10:53 AM 57.0 °F - 36.0 °F 45% 30.28 in 10.0 mi West 3.5 mph - N/A   Clear
11:53 AM 64.0 °F - 37.0 °F 37% 30.25 in 10.0 mi Calm Calm - N/A   Clear
12:53 PM 66.0 °F - 33.1 °F 29% 30.24 in 10.0 mi NNE 4.6 mph - N/A   Clear
1:53 PM 68.0 °F - 30.0 °F 24% 30.22 in 10.0 mi Variable 3.5 mph - N/A   Clear
2:53 PM 68.0 °F - 30.9 °F 25% 30.22 in 10.0 mi Calm Calm - N/A   Clear
3:53 PM 70.0 °F - 32.0 °F 25% 30.20 in 10.0 mi Calm Calm - N/A   Clear
4:53 PM 70.0 °F - 32.0 °F 25% 30.20 in 10.0 mi East 4.6 mph - N/A   Clear
5:53 PM 70.0 °F - 32.0 °F 25% 30.19 in 10.0 mi ENE 5.8 mph - N/A   Clear
6:53 PM 68.0 °F - 33.1 °F 27% 30.20 in 10.0 mi ESE 4.6 mph - N/A   Clear
8:40 PM 55.9 °F - 37.0 °F 49% 30.25 in 10.0 mi SE 4.6 mph - N/A   Partly Cloudy
8:53 PM 55.9 °F - 37.0 °F 49% 30.23 in 10.0 mi ESE 3.5 mph - N/A   Clear
9:53 PM 48.9 °F - 36.0 °F 61% 30.24 in 10.0 mi SW 5.8 mph - N/A   Clear
10:53 PM 48.0 °F - 36.0 °F 63% 30.23 in 10.0 mi WNW 4.6 mph - N/A   Clear
11:53 PM 46.0 °F 43.9 °F 34.0 °F 63% 30.22 in 10.0 mi WNW 4.6 mph - N/A   Clear